Preview of NWS' New Version of Forecast
This preview is not operational and should not be used for support decisions.

Regional Weather Roundup (RWR)

Issued by Gray - Portland, ME (GYX)

                            
000
ASUS41 KGYX 171910
RWRGYX
WEATHER ROUNDUP FOR MAINE AND NEW HAMPSHIRE
NATIONAL WEATHER SERVICE GRAY ME
200 PM EST THU JAN 17 2019

MEZ002-005-006-010-012-015-018-020-021-024-026-027-029-172000-
MAINE
  
CITY           SKY/WX    TMP DP  RH WIND       PRES   REMARKS
PORTLAND       FAIR      22  -4  32 E6        30.34F                  
SANFORD        FLURRIES  23  -5  29 W8        30.33F                  
BAR HARBOR     FAIR      15  -7  37 VRB5      30.33S                  
WISCASSET      FAIR      20  -9  27 VRB5      30.36S                  
ROCKLAND       FAIR      18  -4  37 W9        30.34R                  
FRYEBURG       FAIR      21 -12  22 VRB6      30.29F                  
LEWISTONAUBURN FAIR      19  -9  28 NW9       30.32F                  
AUGUSTA        FAIR      16 -11  29 W5        30.32S                  
WATERVILLE     FAIR      14  -8  37 MISG      30.30S                  
BANGOR         FAIR      14  -7  38 NW8       30.33S                  
GREENVILLE       N/A      4 -12  48 NW15      30.17R WCI -14          
MILLINOCKET    FAIR       8 -10  43 VRB7      30.31S                  
HOULTON        FAIR       4 -12  48 VRB6      30.27R                  
PRESQUE ISLE   FAIR       3 -12  49 W8        30.27F                  
FRENCHVILLE    FAIR       0 -14  51 W8        30.20S                  
CARIBOU        FAIR       2 -15  45 W5        30.25S                  
$$

NHZ002-005-008-009-011-012-014-172000-
NEW HAMPSHIRE
  
CITY           SKY/WX    TMP DP  RH WIND       PRES   REMARKS
PORTSMOUTH     PTSUNNY   25 -14  17 W7        30.32F                  
ROCHESTER      FAIR      23  -8  25 NW12      30.31F WCI  12          
NASHUA         FAIR      26  -4  27 VRB3      30.34F                  
MANCHESTER     FAIR      25  -6  25 VRB3      30.32F                  
CONCORD        FAIR      22  -3  33 N5        30.33F                  
LACONIA        FAIR      18  -6  34 VRB5      30.32S                  
PLYMOUTH       FAIR      17  -9  30 W6        30.32F                  
BERLIN         FAIR      12  -9  38 VRB7      30.26F                  
WHITEFIELD     FAIR      13  -9  37 CALM      30.29F                  
JAFFREY        FAIR      23  -9  24 W7        30.27S                  
KEENE          FAIR      23  -4  30 NE3       30.32F                  
LEBANON        FAIR      17  -3  41 CALM      30.32F                  
MT WASHINGTON  MOSUNNY   -6 -24  41 W40         N/A  WCI -37          
$$

VTZ005-007-008-172000-
VERMONT
  
CITY           SKY/WX    TMP DP  RH WIND       PRES   REMARKS
ST JOHNSBURY     N/A     13  -7  40 MISG      30.31F                  
MONTPELIER     FAIR      12  -4  48 E3        30.31F                  
BURLINGTON     FAIR      13  -4  46 SW5       30.35F                  
$$

MAZ007-012-024-CTZ003-RIZ002-NYZ038-NYZ072-172000-
SOUTHERN NEW ENGLAND AND NY
  
CITY           SKY/WX    TMP DP  RH WIND       PRES   REMARKS
BOSTON         PTSUNNY   29 -10  18 VRB5      30.36F                  
WORCESTER      FAIR      24  -7  25 NW6       30.27F                  
NANTUCKET      FAIR      29  10  45 N12       30.35S WCI  19          
PROVIDENCE     PTSUNNY   29  -3  25 VRB3      30.35F                  
HARTFORD       PTSUNNY   28  -7  21 E5        30.33F                  
ALBANY         PTSUNNY   22  -4  32 NE6       30.35F                  
NEW YORK CITY  PTSUNNY   31   5  33 E8        30.35F                  
$$

ANZ081-ANZ082-ANZ150-NHZ014-MEZ023>029-172000-
COASTAL MARINE OBSERVATIONS
  
STATION/POSITION TIME  TEMP    WIND        PRES    WAVE
                       AIR SEA DIR/SP/G            HT/PER
                 (UTC) (F)     (DEG/KT/KT) (MB)    (FT/S)
MOUNT DESERT ROC 1900   17     310/ 14/ 17 1027.1R
MATINICUS ROCK   1800   19     330/  7/ 10 1026.9R
ISLE OF SHOALS   1800   22     300/  8/ 10 1027.4F
JEFFREYS LEDGE   1838      43                N/A     2/ 5
CASHES LEDGE BUO 1850   25 40              1028.4R   3/ 5
$$

.............KEY..............
   WCI - WIND CHILL
   TC  - TEMPERATURE IN CELSIUS
   VSB - VISIBILITY IN MILES
   HX  - HEAT INDEX
   FAIR- INDICATES FEW OR NO CLOUDS BELOW 12,000 FT, WITH NO 
         SIGNIFICANT WEATHER AND/OR OBSTRUCTIONS TO VISIBILITY.